| time (UTC) | temp F | wind direction | speed MPH | gust MPH | rain 1hr in | rain 24hr in | rain mn in | humidity % | barometer mb |
| 20260505010021 | 51 | 344 | 3.0 | 8.0 | 0.00 | 0.01 | 0.01 | 48 | 1011.8 |
| 20260505004550 | 52 | 344 | 3.0 | 8.0 | 0.00 | 0.01 | 0.01 | 47 | 1011.7 |
| 20260505003020 | 52 | 360 | 2.0 | 6.0 | 0.00 | 0.01 | 0.01 | 46 | 1011.5 |
| 20260505001547 | 52 | 332 | 2.0 | 6.0 | 0.00 | 0.01 | 0.01 | 46 | 1011.4 |
| 20260505000011 | 53 | 311 | 4.0 | 8.0 | 0.00 | 0.01 | 0.01 | 45 | 1011.3 |
| 20260504234509 | 53 | 316 | 3.0 | 6.0 | 0.00 | 0.01 | 0.01 | 45 | 1011.2 |
| 20260504233009 | 53 | 332 | 3.0 | 10.0 | 0.00 | 0.01 | 0.01 | 44 | 1011.1 |
| 20260504231544 | 54 | 321 | 2.0 | 7.0 | 0.00 | 0.01 | 0.01 | 45 | 1010.9 |
| 20260504230049 | 54 | 348 | 5.0 | 11.0 | 0.00 | 0.01 | 0.01 | 45 | 1010.6 |
| 20260504224541 | 54 | 283 | 3.0 | 11.0 | 0.00 | 0.01 | 0.01 | 46 | 1010.5 |
| 20260504211538 | 53 | 331 | 4.0 | 9.0 | 0.00 | 0.01 | 0.01 | 61 | 1010.3 |
| 20260504210032 | 53 | 272 | 4.0 | 10.0 | 0.00 | 0.01 | 0.01 | 65 | 1010.2 |
| 20260504204521 | 52 | 293 | 3.0 | 8.0 | 0.01 | 0.01 | 0.01 | 70 | 1010.3 |
| 20260504203023 | 52 | 342 | 3.0 | 8.0 | 0.01 | 0.01 | 0.01 | 70 | 1010.2 |
| 20260504201520 | 52 | 302 | 1.0 | 4.0 | 0.01 | 0.01 | 0.01 | 67 | 1010.0 |
| 20260504200018 | 52 | 340 | 2.0 | 5.0 | 0.01 | 0.01 | 0.01 | 65 | 1010.2 |
| 20260504194518 | 53 | 325 | 1.0 | 4.0 | 0.00 | 0.00 | 0.00 | 62 | 1010.2 |
| 20260504193018 | 52 | 33 | 3.0 | 6.0 | 0.00 | 0.00 | 0.00 | 62 | 1009.9 |
| 20260504191552 | 55 | 344 | 4.0 | 10.0 | 0.00 | 0.00 | 0.00 | 50 | 1009.7 |
| 20260504190040 | 57 | 319 | 5.0 | 10.0 | 0.00 | 0.00 | 0.00 | 45 | 1009.6 |
| 20260504184508 | 57 | 346 | 4.0 | 11.0 | 0.00 | 0.00 | 0.00 | 47 | 1009.8 |
| 20260504183003 | 58 | 309 | 4.0 | 12.0 | 0.00 | 0.00 | 0.00 | 45 | 1009.9 |
| 20260504181557 | 58 | 304 | 3.0 | 9.0 | 0.00 | 0.00 | 0.00 | 45 | 1009.8 |
| 20260504181505 | 58 | 319 | 3.0 | 9.0 | 0.00 | 0.00 | 0.00 | 45 | 1009.8 |
| 20260504180049 | 57 | 302 | 3.0 | 10.0 | 0.00 | 0.00 | 0.00 | 45 | 1009.9 |
| 20260504174524 | 58 | 304 | 4.0 | 10.0 | 0.00 | 0.00 | 0.00 | 44 | 1009.9 |
| 20260504173102 | 57 | 294 | 4.0 | 13.0 | 0.00 | 0.00 | 0.00 | 44 | 1009.7 |
| 20260504173002 | 57 | 303 | 5.0 | 13.0 | 0.00 | 0.00 | 0.00 | 44 | 1009.6 |
| 20260504171538 | 59 | 307 | 3.0 | 10.0 | 0.00 | 0.00 | 0.00 | 43 | 1009.8 |
| 20260504033037 | 50 | 165 | 0.0 | 2.0 | 0.00 | 0.00 | 0.00 | 71 | 1006.7 |
| 20260504031558 | 51 | 86 | 0.0 | 2.0 | 0.00 | 0.00 | 0.00 | 69 | 1006.8 |
| 20260504030013 | 53 | 355 | 0.0 | 1.0 | 0.00 | 0.00 | 0.00 | 66 | 1006.8 |
| 20260504024533 | 54 | 355 | 0.0 | 1.0 | 0.00 | 0.00 | 0.00 | 63 | 1006.7 |
| 20260504023015 | 56 | 355 | 0.0 | 0.0 | 0.00 | 0.00 | 0.00 | 60 | 1006.7 |
| 20260504021531 | 57 | 351 | 0.0 | 1.0 | 0.00 | 0.00 | 0.00 | 57 | 1006.6 |
| 20260504020051 | 58 | 351 | 0.0 | 0.0 | 0.00 | 0.00 | 0.00 | 54 | 1006.6 |
| 20260504014533 | 59 | 351 | 0.0 | 0.0 | 0.00 | 0.00 | 0.00 | 51 | 1006.7 |
| 20260504013103 | 60 | 351 | 0.0 | 2.0 | 0.00 | 0.00 | 0.00 | 50 | 1007.0 |
| 20260504011539 | 60 | 348 | 1.0 | 2.0 | 0.00 | 0.00 | 0.00 | 50 | 1007.1 |